Probability
0 0 0 0 0 0 0 0 0 0 0 0 0 0 0 0 0 0 0 0 0 0 0 0 0 0 0 0 0 0 0 0 0 1 1 1 0 0 0 0 0 0 0 0
0 0 0 0 0 0 0 0 0 0 0 0 0 0 0 0 0 0 0 0 0 0 0 0 0 0 0 0 0 0 0 0 0 0 1 1 1 0 0 0 0 0 0 0
0 0 0 0 0 0 0 0 0 0 0 0 0 0 0 0 0 0 0 0 0 0 0 0 0 0 0 0 0 0 0 0 0 0 0 1 1 0 0 0 0 0 0 0
0 0 0 0 0 0 0 0 0 0 0 0 0 0 0 0 0 0 0 0 0 0 0 0 0 0 0 0 0 0 0 0 0 0 0 0 0 0 0 0 0 0 0 0
0 0 0 0 0 0 0 0 0 0 0 0 0 0 0 0 0 0 0 0 0 0 0 0 0 0 0 0 0 0 0 0 0 0 0 0 0 0 0 0 0 0 0 0
0 0 0 0 0 0 0 0 0 0 0 0 0 0 0 0 0 0 0 0 0 0 0 0 0 0 0 0 0 0 0 0 0 0 0 0 0 0 0 0 0 0 0 0
0 0 0 0 0 0 0 0 0 0 0 0 0 0 0 0 0 0 0 0 0 0 0 0 0 0 0 0 0 0 0 0 0 0 0 0 0 0 0 0 0 0 0 0
0 0 0 0 0 0 0 0 0 0 0 0 0 0 0 0 0 0 0 0 0 0 0 0 0 0 0 0 0 0 0 0 0 0 0 0 0 0 0 0 0 0 0 0
0 0 0 0 0 0 0 0 0 0 0 0 0 0 0 0 0 0 0 0 0 0 0 0 0 0 0 0 0 0 0 0 0 0 0 0 0 0 0 0 0 0 0 0
0 0 0 0 0 0 0 0 0 0 0 0 0 0 0 0 0 0 0 0 0 0 0 0 0 0 0 0 0 0 0 0 0 0 0 0 0 0 0 0 0 0 0 0
0 0 0 0 0 0 0 0 0 0 0 0 0 0 0 0 0 0 0 0 0 0 0 0 0 0 0 0 0 0 0 0 0 0 0 0 0 0 0 0 0 0 0 0
0 0 0 0 0 0 0 0 0 0 0 0 0 0 0 0 0 0 0 0 0 0 0 0 0 0 0 0 0 0 0 0 0 0 0 0 0 0 0 0 0 0 0 0
0 0 0 0 0 0 0 0 0 0 0 0 0 0 0 0 0 0 0 0 0 0 0 0 0 0 0 0 0 0 0 0 0 0 0 0 0 0 0 0 0 0 0 0
0 0 0 0 0 0 0 0 0 0 0 0 0 0 0 0 0 0 0 0 0 0 0 0 0 0 0 0 0 0 0 0 0 0 0 0 0 0 0 0 0 0 0 0
0 0 0 0 0 0 0 0 0 0 0 0 0 0 0 0 0 0 0 0 0 0 0 0 0 0 0 0 0 0 0 0 0 0 0 0 0 0 0 0 0 0 0 0
0 0 0 0 0 0 0 0 0 0 0 0 0 0 0 0 0 0 0 0 0 0 0 0 0 0 0 0 0 0 0 0 0 0 0 0 0 0 0 0 0 0 0 0
0 0 0 0 0 0 0 0 0 0 0 0 0 0 0 0 0 0 0 0 0 0 0 0 0 0 0 0 0 0 0 0 0 0 0 0 0 0 0 0 0 0 0 0
0 0 0 0 0 0 0 0 0 0 0 0 0 0 0 0 0 0 0 0 0 0 0 0 0 0 0 0 0 0 0 0 0 0 0 0 0 0 0 0 0 0 0 0
0 0 0 0 0 0 0 0 0 0 0 0 0 0 0 0 0 0 0 0 0 0 0 0 0 0 0 0 0 0 0 0 0 0 0 0 0 0 0 0 0 0 0 0
0 0 0 0 0 0 0 0 0 0 0 0 0 0 0 0 0 0 0 0 0 0 0 0 0 0 0 0 0 0 0 0 0 0 0 0 0 0 0 0 0 0 0 0
0 0 0 0 0 0 0 0 0 0 0 0 0 0 0 0 0 0 0 0 0 0 0 0 0 0 0 0 0 0 0 0 0 0 0 0 0 0 0 0 0 0 0 0
0 0 0 0 0 0 0 0 0 0 0 0 0 0 0 0 0 0 0 0 0 0 0 0 0 0 0 0 0 0 0 0 0 0 0 0 0 0 0 0 0 0 0 0
0 0 0 0 0 0 0 0 0 0 0 0 0 0 0 0 0 0 0 0 0 0 0 0 0 0 0 0 0 0 0 0 0 0 0 0 0 0 0 0 0 0 0 0
0 0 0 0 0 0 0 0 0 0 0 0 0 0 0 0 0 0 0 0 0 0 0 0 0 0 0 0 0 0 0 0 0 0 0 0 0 0 0 0 0 0 0 0
0 0 0 0 0 0 0 0 0 0 0 0 0 0 0 0 0 0 0 0 0 0 0 0 0 0 0 0 0 0 0 0 0 0 0 0 0 0 0 0 0 0 0 0
0 0 0 0 0 0 0 0 0 0 0 0 0 0 0 0 0 0 0 0 0 0 0 0 0 0 0 0 0 0 0 0 0 0 0 0 0 0 0 0 0 0 0 0
Wind_Speed
1 3 4 5 7 4 2 4 7 5 2 5 9 13 13 9 9 11 10 9 9 8 7 5 5 6 6 5 6 6 6 6 6 5 4 4 4 3 3 3 3 3 3 4
3 5 5 3 4 4 5 6 7 5 2 5 9 14 12 10 11 11 10 9 8 7 5 4 5 5 6 7 7 7 7 7 7 5 5 4 4 4 3 3 3 4 4 4
6 1 2 4 4 5 7 8 7 6 6 5 9 11 8 6 7 7 8 8 7 6 6 4 4 5 5 6 7 6 7 7 7 6 4 4 4 3 4 4 3 4 4 4
4 2 2 4 5 6 6 5 6 6 6 4 4 8 6 5 7 7 7 6 6 5 4 4 4 4 5 6 5 7 7 8 8 8 7 7 6 5 5 4 4 4 5 5
3 3 3 5 4 6 3 1 3 4 5 6 4 7 8 3 6 6 5 4 4 4 4 4 4 4 4 4 5 5 6 7 8 8 8 8 7 5 4 4 5 5 5 5
2 1 2 2 1 3 3 2 1 2 4 7 6 8 8 4 6 4 3 3 3 3 3 3 3 3 3 3 4 4 5 6 6 8 8 8 8 7 6 6 5 5 4 4
3 3 2 1 2 3 4 3 2 3 4 6 3 7 10 5 4 4 4 4 3 2 3 3 2 2 2 3 3 4 5 5 5 7 8 8 8 8 8 7 6 5 4 4
4 5 5 4 4 4 6 5 4 4 5 3 3 9 7 3 4 4 4 3 2 2 2 3 3 2 2 2 3 3 4 5 5 6 6 6 7 6 5 6 6 6 5 5
6 4 1 2 1 4 5 5 2 1 1 5 7 7 7 4 3 2 2 2 2 2 2 2 2 2 2 2 3 3 4 4 4 5 5 5 6 6 6 6 6 5 5 4
3 4 2 1 2 2 2 3 3 4 4 7 7 8 6 5 4 2 2 2 2 2 1 2 2 2 2 2 2 2 3 4 4 4 4 4 5 5 5 5 6 5 5 5
3 3 2 3 7 8 5 5 5 4 4 5 6 6 2 4 3 3 3 2 2 2 2 2 2 2 2 2 2 2 3 3 3 3 4 4 5 5 5 5 5 5 5 5
4 3 4 6 2 2 5 7 7 6 6 6 6 8 1 3 2 3 3 3 2 2 2 2 2 1 1 2 2 2 3 3 3 3 4 4 4 5 5 5 5 5 5 5
5 4 3 3 3 3 6 7 7 5 3 6 8 9 1 2 3 3 3 3 2 2 2 2 2 2 2 2 3 3 3 3 3 3 4 4 4 5 5 5 5 5 5 5
4 5 8 9 4 5 7 8 9 8 8 9 14 14 9 7 7 6 5 5 3 3 2 2 2 3 3 3 3 3 3 3 3 3 4 4 4 5 5 5 5 5 5 6
4 6 6 9 8 7 10 12 13 15 14 13 14 16 16 11 9 7 6 5 5 4 4 3 3 3 3 3 3 3 3 3 3 3 4 4 4 4 4 5 5 5 5 6
4 4 3 7 6 7 11 15 16 18 18 19 19 20 13 10 7 7 7 6 6 6 5 5 4 4 4 4 4 3 3 3 3 3 4 3 3 3 4 4 4 5 5 5
5 5 5 7 4 5 13 13 15 14 15 15 19 16 7 7 8 8 7 7 7 7 5 5 5 5 4 4 4 4 4 3 3 3 3 3 3 3 4 4 4 5 5 5
6 5 4 4 2 12 8 3 10 14 15 15 15 12 9 8 7 6 6 6 7 6 6 5 5 5 4 3 3 3 3 3 3 3 3 3 3 3 3 3 4 5 4 5
7 7 5 4 8 12 9 4 7 9 11 10 14 13 10 6 6 7 6 6 7 6 5 5 4 4 3 3 3 3 3 3 3 3 4 3 3 3 3 4 4 4 5 5
4 6 6 6 8 11 6 1 3 4 8 4 7 8 5 2 5 4 1 3 4 4 3 3 3 3 3 2 2 3 3 3 4 4 4 4 4 4 4 5 4 4 4 4
6 6 9 10 10 11 5 1 4 6 5 0 3 5 5 7 6 4 3 3 3 2 2 2 2 2 3 2 2 3 3 4 4 3 3 3 4 4 4 4 3 3 3 3
10 8 9 8 10 12 4 6 7 5 2 2 3 4 5 6 5 5 5 4 3 3 2 2 2 3 2 2 3 4 4 4 3 3 3 3 3 3 3 3 3 3 3 4
10 9 7 10 9 4 5 7 5 3 4 4 4 5 5 6 7 6 5 4 3 3 3 2 2 3 2 2 3 5 4 3 2 2 3 3 3 2 3 3 3 3 3 3
6 4 6 7 10 9 8 8 7 6 7 7 6 6 5 7 7 6 5 4 4 3 3 2 2 3 3 3 3 4 3 3 2 3 3 2 2 2 2 2 3 3 3 4
6 6 6 8 9 8 9 9 8 7 6 6 5 5 6 6 6 6 5 4 4 3 3 2 3 4 4 3 4 3 3 2 3 3 3 2 2 2 2 3 3 4 4 4
7 9 9 9 7 7 8 6 6 6 6 6 5 5 4 4 5 5 4 4 3 3 3 3 3 4 4 4 4 3 2 2 2 2 2 2 2 2 2 2 2 4 5 6
Wind_Direction
120 181 208 216 219 241 241 249 269 276 295 274 266 272 276 272 259 258 256 253 253 254 258 248 233 226 221 213 207 205 201 197 192 187 188 192 199 198 197 199 197 197 191 187
161 221 236 228 213 221 236 256 268 283 289 279 285 279 273 263 254 253 254 253 253 257 255 244 230 221 219 214 208 204 204 201 199 198 196 197 197 204 206 199 200 202 195 188
203 166 198 188 192 217 238 248 261 279 301 263 289 278 252 246 248 252 250 252 255 255 255 250 234 223 221 222 215 209 206 204 202 198 188 182 189 195 198 203 202 204 199 193
223 219 188 201 216 221 244 237 248 263 275 281 301 292 271 252 263 255 251 248 251 252 252 253 241 231 225 226 219 215 210 205 200 195 195 195 198 201 207 206 204 200 200 202
205 186 198 220 229 216 234 183 227 245 252 270 242 263 278 235 254 254 246 245 250 255 258 259 251 242 234 225 218 212 208 205 200 199 199 200 206 206 203 199 201 199 198 204
237 198 232 233 212 203 152 142 170 210 234 253 234 238 272 231 240 251 238 238 255 266 267 268 264 247 232 225 218 210 206 203 198 199 202 205 206 202 199 199 200 200 199 203
230 209 198 179 153 158 183 198 237 231 229 248 184 232 256 256 253 253 267 275 278 272 272 276 273 256 244 229 218 212 208 207 200 198 203 208 209 207 207 205 205 203 202 205
217 227 192 195 209 199 202 216 222 246 255 273 203 238 256 277 283 270 263 267 281 276 272 278 274 261 250 240 225 214 213 214 205 203 207 209 209 211 214 212 209 208 208 210
213 231 114 190 226 194 186 212 256 248 300 271 251 256 277 253 254 235 238 252 283 296 291 284 287 273 257 243 231 223 220 222 217 212 210 211 209 212 217 215 216 216 215 209
213 235 217 180 180 211 248 168 173 203 237 255 259 251 243 223 229 226 252 270 300 321 321 306 302 294 278 263 247 236 227 228 226 220 216 213 211 213 218 217 216 217 216 210
205 207 212 197 208 201 176 186 206 214 243 249 265 259 214 214 214 229 254 279 302 314 313 305 307 303 286 275 260 245 241 236 232 225 225 222 217 215 215 219 220 219 217 213
188 201 234 230 220 274 226 210 194 214 231 239 260 268 101 233 239 239 262 284 303 309 307 303 305 309 295 286 282 266 253 246 243 234 227 226 222 217 216 220 223 219 216 213
170 184 227 233 203 203 228 221 217 233 231 225 238 258 128 239 255 248 258 283 293 289 305 309 305 303 297 287 281 274 266 260 249 234 227 225 220 219 221 224 225 222 219 214
190 209 220 238 249 196 221 220 213 211 227 237 239 260 269 270 276 276 272 274 278 277 275 282 288 293 294 288 279 272 268 263 252 236 230 228 225 223 225 226 224 222 220 217
199 231 240 261 267 245 243 236 220 221 230 242 254 256 264 266 267 274 277 279 276 276 274 275 279 283 286 287 283 275 268 260 244 233 232 234 232 227 222 221 220 220 221 221
203 226 236 261 255 251 259 249 235 235 239 246 260 265 265 266 264 264 264 262 265 268 269 273 270 269 272 275 278 272 265 260 245 240 241 243 232 225 223 222 219 218 220 220
194 188 213 250 269 277 258 237 221 227 229 233 245 255 258 255 254 261 265 261 259 262 264 265 263 264 270 271 268 266 266 261 247 250 253 249 242 235 232 226 221 220 220 217
188 188 215 250 236 242 250 211 218 230 239 234 249 264 261 261 273 269 256 252 258 262 265 265 262 267 276 280 273 267 264 257 252 251 252 251 247 244 243 233 228 229 225 219
203 193 204 217 244 263 274 231 204 219 249 237 240 254 264 270 283 266 246 240 251 260 264 265 263 266 269 271 268 254 247 243 243 248 251 248 242 239 237 235 237 234 229 226
195 204 212 214 234 247 260 197 203 204 256 242 232 248 257 232 261 274 288 262 267 270 267 270 268 262 259 270 259 246 250 249 251 255 257 253 242 237 236 237 238 238 232 233
178 199 216 225 238 257 272 179 162 208 257 230 229 244 229 226 255 302 298 281 272 272 282 279 261 257 268 273 250 247 255 261 273 276 267 258 247 241 241 242 239 233 230 230
186 191 205 208 229 247 185 162 205 246 308 264 262 259 247 256 278 283 279 277 277 282 287 279 268 277 286 275 259 258 262 276 280 268 261 260 255 247 241 235 235 227 219 222
211 207 200 204 227 272 191 217 241 263 260 262 268 270 263 268 273 276 276 275 279 283 283 281 275 281 286 277 265 264 279 285 275 269 268 266 258 247 238 227 224 224 220 222
227 216 217 240 253 258 255 255 260 256 260 273 272 269 259 263 271 272 273 274 275 274 274 277 269 270 280 286 280 275 289 286 268 259 265 262 253 249 239 232 222 223 223 227
220 191 217 247 265 276 261 251 256 264 270 274 274 266 261 261 267 265 264 263 264 269 270 262 259 267 278 289 289 294 295 288 268 264 262 262 254 250 246 244 237 235 241 238
212 204 211 238 238 240 261 265 263 260 260 262 265 270 269 258 264 265 262 261 261 268 273 269 272 276 285 294 297 306 302 285 269 267 269 268 264 257 252 255 267 252 253 261